Precipitable_Water
0.61 0.84 1.21 1.23 1.27 1.33 1.30 1.25 1.11 1.11 1.22 1.36 1.30 1.32 1.28 1.29 1.24 1.24 1.21 1.22 1.22 1.11 0.90 0.84 0.80 0.82 0.82 0.89 0.96 0.96 0.99 1.01 1.04 0.92 0.84 0.83 0.85 0.84 0.85 0.85 0.77 0.63 0.54
0.46 0.58 0.89 1.24 1.12 1.15 1.17 1.06 1.01 1.04 1.11 1.27 1.35 1.32 1.34 1.30 1.25 1.28 1.27 1.28 1.25 1.19 1.03 0.95 0.89 0.86 0.86 0.88 0.89 0.95 0.94 1.01 1.10 0.95 0.85 0.65 0.67 0.76 0.80 0.84 0.82 0.75 0.66
0.35 0.49 0.64 0.85 1.13 1.10 0.96 0.95 0.99 1.03 1.19 1.33 1.44 1.37 1.39 1.37 1.22 1.26 1.30 1.31 1.30 1.29 1.20 1.09 1.01 1.00 0.95 0.88 0.86 0.89 0.90 0.89 1.02 1.04 0.87 0.68 0.53 0.56 0.66 0.73 0.79 0.79 0.74
0.39 0.42 0.54 0.70 0.87 1.05 1.08 1.13 1.23 1.20 1.25 1.34 1.35 1.34 1.28 1.18 1.24 1.35 1.35 1.37 1.41 1.41 1.35 1.29 1.23 1.15 1.09 1.00 0.90 0.87 0.88 0.91 0.88 0.96 1.01 0.96 0.83 0.65 0.58 0.67 0.68 0.75 0.76
0.41 0.42 0.47 0.58 0.74 0.89 0.99 1.18 1.22 1.33 1.35 1.35 1.40 1.44 1.34 1.33 1.34 1.38 1.36 1.37 1.38 1.44 1.50 1.41 1.36 1.31 1.25 1.15 1.10 0.98 0.89 0.91 0.91 0.92 0.97 0.96 0.95 0.93 0.79 0.73 0.78 0.82 0.75
0.43 0.45 0.49 0.54 0.66 0.81 0.94 1.07 1.26 1.39 1.45 1.51 1.52 1.52 1.42 1.37 1.38 1.38 1.35 1.37 1.38 1.45 1.49 1.47 1.42 1.38 1.32 1.25 1.15 1.09 1.01 0.94 0.87 0.90 0.99 1.00 0.93 0.96 0.92 0.83 0.82 0.85 0.88
0.43 0.44 0.49 0.52 0.62 0.76 0.87 0.99 1.09 1.22 1.44 1.48 1.47 1.63 1.45 1.48 1.45 1.46 1.45 1.39 1.32 1.41 1.46 1.47 1.37 1.30 1.27 1.29 1.22 1.15 1.07 1.00 0.93 0.89 0.83 0.93 0.98 1.02 1.06 1.00 0.93 0.87 0.93
0.46 0.46 0.48 0.51 0.60 0.70 0.80 0.89 0.99 1.10 1.23 1.34 1.41 1.48 1.45 1.44 1.43 1.56 1.54 1.49 1.45 1.42 1.48 1.50 1.45 1.39 1.31 1.26 1.24 1.17 1.12 1.10 1.05 0.99 0.95 0.90 0.93 0.97 1.01 1.04 1.02 0.92 0.95
0.48 0.48 0.50 0.52 0.53 0.63 0.74 0.82 0.92 1.03 1.08 1.21 1.26 1.35 1.41 1.48 1.44 1.33 1.50 1.54 1.56 1.54 1.57 1.52 1.41 1.38 1.35 1.34 1.30 1.23 1.23 1.24 1.18 1.14 1.10 1.02 0.99 1.00 1.01 1.04 1.09 1.00 0.91
0.48 0.51 0.51 0.57 0.56 0.63 0.71 0.77 0.85 0.92 0.95 1.06 1.13 1.10 1.19 1.30 1.37 1.53 1.46 1.38 1.51 1.53 1.54 1.51 1.43 1.43 1.34 1.30 1.29 1.26 1.31 1.30 1.27 1.23 1.18 1.16 1.14 1.12 1.11 1.03 1.02 1.07 1.05
0.48 0.52 0.52 0.56 0.62 0.65 0.68 0.70 0.75 0.79 0.83 0.94 0.98 0.98 0.98 1.04 1.17 1.28 1.45 1.47 1.52 1.49 1.51 1.53 1.50 1.43 1.38 1.33 1.28 1.26 1.29 1.30 1.25 1.28 1.25 1.21 1.24 1.22 1.23 1.25 1.14 1.08 1.10
0.48 0.52 0.54 0.54 0.55 0.57 0.62 0.65 0.67 0.72 0.78 0.86 0.87 0.85 0.87 0.94 1.04 1.14 1.19 1.31 1.43 1.50 1.49 1.44 1.44 1.45 1.46 1.41 1.36 1.34 1.33 1.28 1.27 1.24 1.21 1.23 1.28 1.23 1.27 1.30 1.27 1.26 1.16
0.46 0.51 0.54 0.56 0.55 0.55 0.56 0.60 0.65 0.70 0.77 0.79 0.76 0.77 0.76 0.83 0.87 0.93 1.03 1.11 1.17 1.32 1.38 1.38 1.34 1.31 1.29 1.27 1.28 1.32 1.34 1.34 1.31 1.25 1.25 1.21 1.23 1.18 1.23 1.26 1.32 1.33 1.28
0.44 0.49 0.53 0.56 0.57 0.57 0.56 0.56 0.59 0.66 0.68 0.69 0.68 0.68 0.72 0.76 0.79 0.83 0.88 0.92 1.01 1.09 1.17 1.22 1.21 1.27 1.24 1.22 1.20 1.23 1.26 1.25 1.24 1.24 1.21 1.26 1.22 1.19 1.26 1.27 1.27 1.30 1.25
0.41 0.48 0.48 0.52 0.55 0.56 0.55 0.56 0.54 0.55 0.60 0.59 0.58 0.61 0.66 0.68 0.71 0.73 0.78 0.79 0.83 0.93 1.06 1.10 1.19 1.22 1.25 1.26 1.12 1.07 1.08 1.07 1.01 1.01 1.05 1.09 1.17 1.20 1.26 1.26 1.23 1.20 1.21
0.35 0.46 0.50 0.51 0.51 0.53 0.52 0.52 0.54 0.56 0.56 0.54 0.54 0.54 0.56 0.59 0.64 0.67 0.70 0.71 0.70 0.74 0.81 0.89 0.96 1.06 1.15 1.19 1.15 1.13 1.00 0.97 0.93 0.90 0.92 0.95 1.00 1.09 1.20 1.22 1.28 1.29 1.21
0.31 0.36 0.43 0.47 0.50 0.49 0.51 0.51 0.53 0.56 0.55 0.54 0.54 0.55 0.55 0.53 0.53 0.54 0.53 0.52 0.52 0.56 0.61 0.68 0.78 0.86 0.97 1.00 1.07 1.08 1.04 1.08 1.06 0.98 0.94 0.89 0.96 1.01 1.04 1.11 1.17 1.21 1.25
0.26 0.30 0.38 0.44 0.47 0.48 0.47 0.44 0.51 0.55 0.55 0.54 0.54 0.56 0.57 0.57 0.57 0.57 0.57 0.57 0.56 0.54 0.52 0.54 0.59 0.68 0.85 0.84 0.87 0.86 0.90 0.89 0.88 0.91 0.99 1.00 0.96 0.98 0.93 0.89 0.90 0.94 1.05
0.27 0.29 0.37 0.43 0.47 0.47 0.46 0.44 0.43 0.45 0.52 0.53 0.55 0.58 0.60 0.59 0.59 0.59 0.59 0.60 0.59 0.57 0.56 0.59 0.60 0.65 0.60 0.61 0.65 0.70 0.76 0.78 0.79 0.85 1.02 1.06 1.04 1.02 1.01 0.95 0.93 0.91 0.91
0.29 0.28 0.33 0.38 0.47 0.52 0.51 0.47 0.46 0.48 0.49 0.50 0.53 0.57 0.60 0.60 0.60 0.61 0.61 0.62 0.61 0.60 0.60 0.59 0.60 0.60 0.63 0.59 0.60 0.65 0.71 0.74 0.80 0.89 0.97 1.04 1.04 1.00 1.00 0.97 0.99 0.97 1.03
0.30 0.32 0.33 0.33 0.39 0.48 0.54 0.50 0.50 0.52 0.56 0.59 0.60 0.60 0.59 0.57 0.59 0.60 0.61 0.60 0.60 0.61 0.61 0.62 0.63 0.60 0.66 0.64 0.63 0.66 0.66 0.68 0.77 0.84 0.87 0.90 0.91 0.95 0.95 0.98 0.95 0.93 0.97
0.26 0.26 0.25 0.27 0.30 0.37 0.49 0.52 0.53 0.58 0.60 0.58 0.59 0.58 0.59 0.61 0.61 0.60 0.58 0.58 0.59 0.59 0.59 0.62 0.62 0.67 0.71 0.72 0.70 0.67 0.68 0.67 0.76 0.66 0.72 0.76 0.77 0.80 0.84 0.87 0.89 0.91 0.91
0.21 0.22 0.22 0.23 0.25 0.26 0.31 0.42 0.52 0.58 0.58 0.57 0.58 0.58 0.61 0.59 0.58 0.55 0.55 0.57 0.59 0.58 0.59 0.61 0.65 0.65 0.67 0.70 0.72 0.74 0.70 0.68 0.74 0.71 0.68 0.69 0.69 0.69 0.71 0.74 0.77 0.79 0.80
0.16 0.18 0.17 0.19 0.20 0.23 0.24 0.25 0.36 0.44 0.53 0.57 0.58 0.60 0.59 0.60 0.60 0.58 0.58 0.57 0.58 0.58 0.59 0.59 0.58 0.60 0.60 0.63 0.67 0.67 0.62 0.64 0.66 0.66 0.64 0.64 0.64 0.64 0.64 0.65 0.65 0.67 0.68
0.15 0.15 0.14 0.15 0.16 0.18 0.20 0.20 0.21 0.23 0.22 0.31 0.41 0.51 0.58 0.60 0.61 0.65 0.66 0.64 0.62 0.62 0.60 0.61 0.61 0.59 0.57 0.59 0.61 0.60 0.60 0.62 0.62 0.61 0.61 0.60 0.58 0.56 0.55 0.55 0.57 0.60 0.62
0.11 0.12 0.13 0.13 0.14 0.16 0.16 0.17 0.17 0.18 0.18 0.17 0.20 0.21 0.25 0.27 0.30 0.34 0.36 0.43 0.46 0.48 0.48 0.47 0.44 0.42 0.43 0.43 0.44 0.46 0.50 0.53 0.56 0.55 0.55 0.55 0.55 0.54 0.55 0.55 0.55 0.57 0.56
Wind_Speed
27 27 27 33 32 31 31 30 29 29 30 31 30 29 28 27 26 26 26 24 23 21 20 20 20 19 18 18 17 16 15 14 12 10 10 10 10 10 10 9 10 11 12
27 28 27 30 33 33 33 32 32 32 33 33 33 31 30 29 28 27 26 25 25 23 22 22 21 20 20 19 19 19 17 16 15 13 12 11 12 14 13 12 12 12 13
28 29 29 29 29 35 35 35 34 34 34 35 34 32 31 30 29 28 27 27 27 26 24 23 23 22 21 21 21 20 20 18 18 16 14 12 12 12 13 15 15 14 14
29 30 31 31 31 31 31 37 36 36 36 36 36 36 33 33 31 29 28 27 27 26 25 25 25 24 23 23 22 22 22 20 20 19 19 17 15 13 13 13 15 16 16
29 30 31 32 32 32 32 33 37 37 37 38 38 38 37 35 34 32 30 29 28 27 26 27 25 25 25 24 24 24 24 23 22 22 20 21 19 19 18 17 15 16 18
30 31 31 31 32 31 30 31 33 37 37 37 38 40 39 35 33 33 33 31 29 28 25 24 26 25 25 25 26 27 27 27 26 26 26 24 22 21 21 20 20 19 18
31 31 31 31 31 31 30 30 30 31 34 36 36 38 38 36 37 35 34 33 31 30 28 27 25 24 24 23 24 26 25 25 25 26 26 28 28 27 25 24 23 23 23
31 30 31 33 32 31 30 29 30 30 30 31 31 32 35 32 33 34 35 34 32 32 31 30 28 26 25 24 24 23 25 25 26 27 27 27 28 29 30 29 28 27 27
30 30 30 32 32 33 31 30 29 29 29 29 29 29 28 29 38 38 34 34 32 31 32 31 30 29 28 27 26 26 25 26 27 27 28 29 29 30 31 32 32 32 31
27 29 30 29 32 32 32 31 30 29 28 28 29 29 29 29 32 24 28 28 31 30 30 32 32 32 31 30 29 29 29 29 28 28 29 29 30 29 30 31 33 35 35
21 27 28 31 30 30 31 30 30 30 29 28 27 27 28 30 30 30 31 29 29 31 29 29 30 32 32 32 32 32 32 32 31 30 30 29 30 31 31 32 32 31 34
15 23 26 28 29 30 30 30 29 29 28 28 28 29 28 28 29 30 30 29 30 30 30 30 30 31 31 32 33 34 34 35 34 33 33 32 31 32 33 32 33 36 36
13 17 21 24 26 27 28 29 29 29 28 27 28 28 29 28 28 29 30 30 31 32 33 33 33 32 33 34 34 34 35 34 35 35 35 35 35 35 35 35 37 36 37
8 13 18 20 23 24 25 27 28 30 31 30 30 30 30 30 30 30 31 31 32 32 33 34 35 34 33 34 35 36 35 36 35 36 36 36 36 37 37 37 37 37 37
4 7 13 18 20 22 24 27 28 29 31 32 32 32 33 33 33 33 33 34 34 34 34 35 35 35 37 35 37 36 36 37 37 38 38 39 39 39 38 37 37 37 38
4 2 7 13 16 20 22 26 28 30 32 33 33 34 34 35 36 36 36 36 36 36 37 37 38 38 38 37 36 36 38 39 39 39 39 40 41 41 41 41 40 39 38
5 3 5 8 13 17 19 23 27 30 31 32 33 34 36 37 37 38 38 38 38 39 40 40 41 42 41 41 40 40 40 40 40 41 40 40 40 40 41 42 43 43 43
9 7 7 6 9 13 16 19 22 25 29 33 34 35 37 39 39 39 39 39 39 39 39 40 41 41 41 41 42 42 42 42 42 41 41 41 41 42 42 42 43 44 45
8 8 8 8 9 13 16 20 21 23 28 30 33 35 37 37 37 37 37 39 39 38 38 39 39 39 39 39 40 40 41 42 42 42 42 42 42 42 43 44 45 46 46
7 8 10 10 10 12 14 15 17 17 20 24 28 34 38 40 40 38 39 38 37 36 35 34 34 34 36 36 37 38 39 39 40 40 40 40 41 42 42 43 45 47 47
10 11 11 12 12 13 12 11 10 10 12 14 19 22 26 32 34 35 33 33 33 32 32 31 31 32 32 33 34 35 37 38 39 39 40 41 42 43 45 45 47 48 49
11 12 12 13 15 16 15 13 11 10 7 10 11 10 11 16 22 25 27 28 28 28 28 28 27 27 29 30 32 34 36 37 38 40 42 44 45 46 47 47 49 50 51
12 12 13 13 15 16 16 16 15 12 12 11 11 10 9 6 7 12 16 20 24 25 24 24 24 26 27 28 29 32 34 36 37 40 42 44 45 46 47 48 49 50 51
14 14 14 14 14 15 16 16 16 16 15 14 13 11 9 8 6 3 4 7 11 17 21 23 24 25 25 27 28 31 33 34 36 38 40 41 43 44 45 46 48 48 49
17 17 17 17 16 16 16 16 17 16 16 16 16 16 14 8 7 7 7 4 4 5 9 14 19 21 23 25 26 27 29 31 33 34 36 37 38 40 41 42 44 45 46
20 20 20 20 20 20 20 19 18 17 17 18 17 16 15 14 12 10 9 9 8 8 6 6 7 10 13 17 21 24 26 28 30 32 34 35 37 38 39 40 40 41 42
Wind_Direction
250 247 245 231 229 229 228 228 229 229 224 222 221 221 218 220 222 224 223 222 222 222 221 220 221 221 223 226 227 228 230 235 239 244 255 260 265 268 269 271 270 264 258
252 248 246 240 231 231 231 230 232 230 226 224 223 223 222 222 224 225 225 224 223 223 223 223 225 226 229 230 229 230 233 238 239 248 254 266 269 267 267 268 270 271 266
255 249 247 243 240 234 232 232 232 229 226 224 221 222 222 223 224 226 225 224 224 225 226 228 229 231 232 234 233 233 234 239 240 248 255 264 267 275 271 266 268 271 272
255 249 247 244 241 241 238 231 230 227 225 223 222 222 224 223 223 222 224 224 224 226 228 231 232 233 235 237 237 235 238 240 242 248 253 261 265 269 279 277 273 270 273
255 250 246 243 240 238 238 235 230 225 224 223 223 223 226 225 223 223 223 222 224 227 230 232 233 235 237 240 241 240 242 245 247 247 254 259 263 267 270 276 278 276 273
253 249 245 242 238 236 235 233 231 227 226 224 226 225 225 228 222 221 223 223 225 227 229 229 230 235 239 242 244 245 247 250 252 253 255 256 261 264 266 272 272 274 277
250 247 244 240 237 234 234 232 230 227 226 227 229 227 230 226 223 222 225 225 226 227 230 229 231 236 239 243 245 246 247 250 253 255 257 258 259 262 264 268 272 271 274
246 244 242 238 235 233 231 228 227 226 226 229 231 234 235 236 223 229 229 229 230 231 232 233 234 238 241 244 246 248 250 251 255 257 259 262 262 262 263 266 268 271 274
245 242 238 235 233 231 229 226 226 226 227 230 233 233 235 235 237 233 231 230 231 235 236 237 238 240 243 245 248 250 252 255 257 259 261 262 265 264 265 265 266 267 271
244 238 233 232 229 228 226 224 226 227 229 232 235 238 239 241 243 245 241 241 238 239 240 241 241 241 245 247 250 252 254 256 260 261 264 264 262 265 269 269 267 267 268
248 235 231 229 227 227 224 225 228 231 234 235 237 241 243 244 246 248 250 249 248 249 240 244 243 245 246 249 251 254 255 255 259 262 263 265 266 266 269 269 268 271 272
256 234 228 226 226 225 225 227 230 232 235 236 239 243 247 247 246 248 250 250 248 247 248 249 249 250 249 251 254 255 255 256 258 261 263 264 267 267 269 271 272 272 273
256 232 224 222 223 224 227 229 232 234 235 237 240 244 247 248 248 249 250 250 249 249 249 249 251 253 253 254 255 256 257 258 259 261 263 264 265 267 270 272 273 274 276
270 229 220 223 224 226 230 234 235 238 240 244 246 247 247 249 250 252 251 252 252 252 253 252 254 255 255 256 256 256 257 259 260 261 263 264 265 267 271 271 273 274 274
330 229 228 228 230 233 237 241 245 246 247 248 248 249 249 249 251 253 254 254 254 254 255 255 256 256 256 257 256 257 258 259 261 263 264 265 266 267 269 272 273 274 273
342 281 252 241 239 242 249 253 254 252 250 250 250 250 250 251 252 254 254 256 255 256 257 257 257 257 256 256 257 258 258 259 261 263 265 267 267 267 269 270 273 272 274
3 329 311 265 250 252 258 260 259 255 253 253 253 252 252 252 255 255 257 256 256 257 258 259 259 257 257 258 259 259 259 260 262 264 266 268 268 269 270 271 271 272 272
2 352 333 315 270 270 270 272 268 260 254 253 255 254 254 255 255 254 256 258 258 259 260 260 259 258 257 258 258 258 259 261 263 265 266 268 269 270 271 272 272 272 273
351 351 347 321 310 299 286 278 274 268 262 261 260 260 258 256 256 256 258 259 260 260 260 260 259 258 256 257 259 259 259 261 262 264 266 268 270 271 271 272 273 273 274
2 2 8 3 345 330 317 296 285 278 270 268 269 266 259 256 256 257 258 259 259 258 258 258 258 257 257 259 260 260 260 262 264 266 268 269 271 272 274 274 275 275 276
37 31 27 21 10 4 358 351 332 312 292 285 287 281 265 256 254 253 254 254 257 256 256 256 258 258 260 261 262 262 261 264 265 267 269 271 273 274 275 275 276 276 277
32 27 27 26 23 19 18 15 8 2 341 341 338 327 290 264 250 250 252 254 254 253 255 255 257 259 262 263 265 265 265 266 267 269 270 273 275 276 276 276 276 277 277
30 27 23 21 23 26 29 29 27 28 23 13 8 6 4 342 276 260 255 256 253 252 254 257 259 264 266 267 270 268 270 271 271 272 274 276 277 278 278 278 278 278 278
37 31 28 26 25 27 28 32 33 35 35 30 25 23 22 30 36 8 295 275 266 255 253 258 262 265 270 273 274 276 277 276 276 277 277 278 279 279 280 280 280 280 281
42 40 38 37 36 33 34 34 35 36 38 39 40 41 42 51 44 34 28 9 340 300 273 268 267 271 277 279 280 283 283 282 281 281 282 283 284 284 284 284 284 284 284
50 49 47 46 44 44 43 42 42 42 43 43 44 44 47 50 49 43 43 44 40 24 9 342 310 293 289 290 290 290 291 291 288 287 287 288 288 287 288 287 288 288 288